Location: 22
(39.7117°N, 89.5929°W)
Time: 05:10:39
(UTC-05:00)

A-11 Canister half - Visible Passes

Search period start: 29 May 2024 00:00
Search period end: 08 June 2024 00:00
Orbit: 1525 x 1683 km, 47.3° (Epoch: 28 May)

Date Brightness Start Highest point End Pass type
(mag) Time Alt. Az. Time Alt. Az. Time Alt. Az.
29 May 9.0 01:43:40 10° WNW 01:53:20 87° NNE 02:03:21 10° ESE visible
29 May 9.5 03:49:14 10° WNW 03:57:48 36° SW 04:06:35 10° SSE visible
29 May 9.4 21:10:10 10° WSW 21:19:28 69° NNW 21:29:02 10° ENE visible
29 May 9.6 23:16:23 10° WNW 23:25:39 55° N 23:35:11 10° E visible
30 May 9.0 01:21:54 10° WNW 01:31:34 85° NNE 01:41:32 10° ESE visible
30 May 9.4 03:27:24 10° WNW 03:36:04 38° SW 03:44:59 10° SSE visible
30 May 9.4 20:48:22 10° WSW 20:57:40 71° NNW 21:07:14 10° ENE visible
30 May 9.6 22:54:35 10° WNW 23:03:49 55° N 23:13:20 10° E visible
31 May 9.0 01:00:09 10° WNW 01:09:46 82° NNE 01:19:43 10° ESE visible
31 May 9.3 03:05:35 10° WNW 03:14:21 40° SW 03:23:22 10° SSE visible
31 May 9.6 22:32:47 10° WNW 22:41:59 55° N 22:51:28 10° E visible
01 Jun 9.0 00:38:24 10° WNW 00:47:59 80° NNE 00:57:54 10° ESE visible
01 Jun 9.3 02:43:46 10° WNW 02:52:38 42° SW 03:01:45 10° SSE visible
01 Jun 9.6 22:11:00 10° WNW 22:20:10 55° N 22:29:37 10° ENE visible
02 Jun 9.1 00:16:38 10° WNW 00:26:11 78° NNE 00:35:52 11° ESE visible
02 Jun 9.2 02:21:57 10° WNW 02:30:54 44° SW 02:33:53 36° S visible
02 Jun 9.7 21:49:11 10° WNW 21:58:21 55° N 22:07:46 10° ENE visible
02 Jun 9.1 23:54:53 10° WNW 00:04:24 76° NNE 00:12:53 15° ESE visible
03 Jun 9.2 02:00:10 10° WNW 02:09:10 47° SW 02:11:01 43° SSW visible
03 Jun 9.7 21:27:23 10° WNW 21:36:31 55° N 21:45:55 10° ENE visible
03 Jun 9.1 23:33:07 10° WNW 23:42:36 74° NNE 23:50:44 17° ESE visible
04 Jun 9.1 01:38:23 10° WNW 01:47:27 49° SW 01:48:55 46° SSW visible
04 Jun 9.7 21:05:35 10° W 21:14:42 55° N 21:24:04 10° ENE visible
04 Jun 9.2 23:11:21 10° WNW 23:20:49 72° NNE 23:28:58 16° ESE visible
05 Jun 9.1 01:16:35 10° WNW 01:25:43 52° SW 01:27:10 48° SSW visible
05 Jun 9.7 20:43:46 10° W 20:52:53 55° N 21:02:13 10° ENE visible
05 Jun 9.2 22:49:36 10° WNW 22:59:01 70° NNE 23:07:26 15° ESE visible
06 Jun 9.1 00:54:49 10° WNW 01:03:59 54° SW 01:05:39 49° S visible
06 Jun 10.7 03:03:17 10° W 03:03:52 11° W 03:03:52 11° W visible
06 Jun 9.2 22:27:50 10° WNW 22:37:14 68° NNE 22:46:03 13° ESE visible
07 Jun 9.1 00:33:02 10° WNW 00:42:15 57° SW 00:44:17 49° S visible
07 Jun 10.6 02:41:02 10° W 02:42:30 12° WSW 02:42:30 12° WSW visible
07 Jun 9.3 22:06:05 10° WNW 22:15:26 67° NNE 22:24:47 11° E visible
